Tracking 19854 objects as of 24-Sep-2019
HD Live streaming from Space Station
objects crossing your sky now

DELTA 1 DEB

Track DELTA 1 DEB now!
10-day predictions


NORAD ID: 19594
Int'l Code: 1978-026HN
Perigee: 763.6 km
Apogee: 941.6 km
Inclination: 98.9 °
Period: 101.8 minutes
Semi major axis: 7223 km
RCS: 0.0101 m2 (small)
Launch date: March 5, 1978
Source: United States (US)
Launch site: AIR FORCE WESTERN TEST RANGE (AFWTR)

Note: This is SATELLITE DEBRIS
aabbcc
Your satellite tracking list
Your tracking list is empty




NASA's NSSDC Master Catalog

Two Line Element Set (TLE):
1 19594U 78026HN  19266.74394124 +.00000833 +00000-0 +42850-3 0  9995
2 19594 098.8663 247.3714 0123245 053.3157 307.9267 14.14076923355834
Source of the keplerian elements: AFSPC